Location: Tuebingen alte Sternwarte
(48.5376°N, 9.0555°E)
Time: 13:31:12
(UTC+02:00)

Envisat - Pass Details

Date: 02 October 2017
Orbit: 764 x 766 km, 98.2° (Epoch: 24 October)

Event Time Altitude Azimuth Distance (km) Brightness Sun altitude
Exits shadow 20:21:57 16° 132° (SE) 1,894 4.5 -14.3°
Maximum altitude 20:25:36 43° 67° (ENE) 1,079 3.4 -14.9°
Drops below altitude 10° 20:30:23 10° 358° (N) 2,314 5.7 -15.6°
Sets 20:32:47 0° 352° (N) 3,245 6.5 -16.0°
